Location: Newark
(0.5300°S, 127.4800°E)
Time: 05:55:36
(UTC+00:00)

Envisat - Visible Passes

Search period start: 16 July 2019 00:00
Search period end: 26 July 2019 00:00
Orbit: 764 x 766 km, 98.1° (Epoch: 15 July)

Date Brightness Start Highest point End Pass type
(mag) Time Alt. Az. Time Alt. Az. Time Alt. Az.
16 Jul 3.1 10:01:13 10° SSE 10:06:11 56° ENE 10:11:08 10° N visible
17 Jul 5.1 11:04:14 10° SSW 11:08:17 24° WSW 11:12:19 10° NW visible
18 Jul 3.3 10:26:35 10° S 10:31:38 69° WSW 10:36:40 10° NNW visible
19 Jul 5.9 11:32:14 10° WSW 11:33:41 11° WSW 11:35:09 10° W visible
20 Jul 4.7 10:52:34 10° SSW 10:57:04 32° WSW 11:01:34 10° NW visible
21 Jul 3.0 10:15:20 10° SSE 10:20:25 87° ENE 10:25:30 10° N visible
21 Jul 6.0 21:10:53 10° ENE 21:12:58 12° ESE 21:15:03 10° SE visible
22 Jul 5.7 11:19:31 10° SW 11:22:30 16° WSW 11:25:28 10° WNW visible
23 Jul 4.1 10:41:03 10° S 10:45:52 44° WSW 10:50:40 10° NNW visible
24 Jul 3.0 10:04:11 10° SSE 10:09:12 63° ENE 10:14:13 10° N visible
25 Jul 5.3 11:07:30 10° SSW 11:11:17 21° WSW 11:15:05 10° NW visible
